Simultaneous Nadir Overpasses (SNOs) Predictions

Prediction of SNOs near US between AQUA and NPP Satellite Orbit:

Table of predicted SNOs near US for the next 10.0 days since TLE Epoch: 7/27/2019
Index Date (AQUA) Time (AQUA) AQUA Lat,Lon Date (NPP) Time (NPP) NPP Lat,Lon Distance(km) Time Diff (sec)
1 07/28/2019 06:30:13 46.33, -65.04 07/28/2019 06:30:49 46.72, -67.08 161.96 36
2 07/28/2019 08:08:06 49.89, -88.34 07/28/2019 08:11:15 50.40, -90.88 189.15 189
3 07/28/2019 09:46:59 49.90,-113.06 07/28/2019 09:52:43 50.51,-116.20 233.56 344
4 07/30/2019 19:06:15 49.98, -92.52 07/30/2019 19:01:33 49.66, -94.47 144.30 282
5 07/30/2019 20:45:08 49.98,-117.24 07/30/2019 20:43:01 49.55,-119.79 189.58 127
6 08/02/2019 08:34:56 20.03,-101.86 08/02/2019 08:26:36 18.95,-102.35 130.37 500
7 08/02/2019 10:11:37 27.98,-124.66 08/02/2019 10:05:29 28.14,-125.39 73.82 368
8 08/05/2019 07:18:38 49.90, -75.98 08/05/2019 07:20:32 50.35, -78.21 166.66 114
9 08/05/2019 08:57:31 49.91,-100.70 08/05/2019 09:02:00 50.46,-103.54 211.12 269




NCC Satellite Simultaneous Nadir Overpasses (SNOs) Prediction Service
